Tracking 19219 objects as of 20-Jul-2018
HD Live streaming from Space Station
objects crossing your sky now

SPARK 2

Track SPARK 2 now!
10-day predictions


NORAD ID: 41901
Int'l Code: 2016-081D
Perigee: 697.9 km
Apogee: 734.5 km
Inclination: 98.2 °
Period: 99.0 minutes
Semi major axis: 7087 km
RCS: Unknown
Launch date: December 21, 2016
Source: People's Republic of China (PRC)
Launch site: Jiuquan Satellite Launch Center, China (JSC)

SPARK 2 is a secondary payload designed for high-resolution and hyperspectral remote sensing of Earth.
aabbcc
Your satellite tracking list
Your tracking list is empty




NASA's NSSDC Master Catalog

Two Line Element Set (TLE):
1 41901U 16081D   18200.81775927  .00000031  00000-0  17847-4 0  9993
2 41901  98.2093 138.6675 0025808 237.0546 122.8173 14.55090801 83619
Source of the keplerian elements: AFSPC